TIANMU-1 14

Last updated on Wed Oct 22 2025 00:02:22 GMT+0000 (Coordinated Universal Time)

1 58648U 23205D 25294.59349047 .00009309 00000+0 39130-3 0 9995 2 58648 97.3604 314.5518 0010789 94.9400 265.3069 15.23582009101132
UTC large
Height (km)
Speed (km/s)
/
Latitude / Longitude
Inclination (degrees)
Orbital Period (minutes)
Azimuth
Elevation
Range (km)
Doppler Factor

Next 0 passes for location: London (51.5072 / 0.1276)

Sorry there are no passes over London.